Preview of NWS' New Version of Forecast
This preview is not operational and should not be used for support decisions.

Regional Weather Roundup (RWR)

Issued by National Weather Service (NWS)

                            
000
ASUS45 KABQ 230510
RWRNM 
NEW MEXICO REGIONAL WEATHER ROUNDUP
NATIONAL WEATHER SERVICE ALBUQUERQUE NM
1100 PM MDT THU AUG 22 2019

NOTE: "FAIR" MEANS FEW OR NO CLOUDS BELOW 12,000 FEET AGL WITH NO
       SIGNIFICANT WEATHER OR OBSTRUCTIONS TO VISION.

      THIS PRODUCT IS RELEASED AS TWO VERSIONS.  ONE VERSION NEAR
      THE TOP OF THE HOUR CONTAINING PRELIMINARY DATA FROM ALBUQUERQUE
      AND OTHER STATIONS.  A FINAL VERSION WITH ADDITIONAL DATA IS 
      ISSUED ABOUT 10 MINUTES AFTER THE HOUR.
 
NMZ501-503-504-510>518-230600-
NORTHWEST PLATEAU/NORTHCENTRAL MOUNTAINS
  
CITY           SKY/WX    TMP DP  RH WIND       PRES   REMARKS
FARMINGTON     FAIR      72  24  16 E7        30.01S                  
LOS ALAMOS       N/A     72  37  27 S5        30.22R                  
SANTA FE       FAIR      71  45  39 SE15      30.14R                  
TAOS           FAIR      58  43  57 E8        30.21F                  
ANGEL FIRE     FAIR      45  43  93 CALM      30.34S                  

$$
NMZ402-403-502-505>509-230600-
WESTCENTRAL MOUNTAINS/SOUTHWEST MOUNTAINS
  
CITY           SKY/WX    TMP DP  RH WIND       PRES   REMARKS
GALLUP         FAIR      64  21  19 CALM      30.12S                  
GRANTS         FAIR      63  29  27 N3        30.14F                  
SILVER CITY    FAIR      79  43  27 S6        30.08F                  

$$
NMZ407-409-411-412-230600-
SOUTHERN DESERTS
  
CITY           SKY/WX    TMP DP  RH WIND       PRES   REMARKS
DEMING         FAIR      80  54  40 W7        30.00R                  
LAS CRUCES     FAIR      81  54  39 W6        30.01R                  
HOLLOMAN AFB   CLOUDY    82  55  38 SE14      29.97F                  
ALAMOGORDO     FAIR      77  52  41 S12       29.97F                  
T OR C         FAIR      79  47  32 MISG      30.00F                  

$$
NMZ519>523-230600-
CENTRAL VALLEYS/CENTRAL HIGHLANDS
  
CITY           SKY/WX    TMP DP  RH WIND       PRES   REMARKS
ALBUQUERQUE    MOCLDY    80  45  28 E15       30.03S                  
DOUBLE EAGLE   FAIR      75  42  30 SE10      30.07R                  
MORIARTY ARPT  FAIR      72  51  47 W6        30.16R                  
CLINES CORNERS FAIR      62  51  67 E9        30.21R                  
BELEN          FAIR      78  42  27 NE9G16    30.02R                  
SOCORRO        FAIR      78  46  32 SE8       29.99F                  

$$
NMZ524>526-539-540-230600-
SOUTHCENTRAL MOUNTAINS
  
CITY           SKY/WX    TMP DP  RH WIND       PRES   REMARKS
RUIDOSO        FAIR      64  52  63 NE6       30.21F                  

$$
NMZ527>531-230600-
NORTHEAST HIGHLANDS/NORTHEAST PLAINS
  
CITY           SKY/WX    TMP DP  RH WIND       PRES   REMARKS
LAS VEGAS      FAIR      57  46  66 NE5       30.21F                  
RATON          FAIR      61  43  51 N3        30.14F                  
CLAYTON        FAIR      69  54  58 CALM      30.05R                  

$$
NMZ532>537-230600-
EASTCENTRAL PLAINS
  
CITY           SKY/WX    TMP DP  RH WIND       PRES   REMARKS
SANTA ROSA     FAIR      68  56  64 S3        30.04S                  
TUCUMCARI      FAIR      70  57  63 S5        29.97R                  
CANNON AFB     LGT RAIN  64  61  90 E14       30.13S                  
CLOVIS AIRPORT RAIN      64  59  83 N14       30.13F                  

$$
NMZ028-029-538-230600-
SOUTHEAST PLAINS
  
CITY           SKY/WX    TMP DP  RH WIND       PRES   REMARKS
ROSWELL        FAIR      82  56  40 S14       29.95F                  
ARTESIA        FAIR      79  61  53 SE15      29.99R                  
CARLSBAD       FAIR      77  59  53 S13       29.96R                  
HOBBS          FAIR      72  61  68 SE8       30.02R                  


$$